Weather History for Slidell, LA

Change the Weather History Date:

Saturday, October 13, 2012

  Actual Average (KNEW) Record (KNEW)
Temperature  
Mean Temperature 70 °F 72 °F  
Max Temperature 84 °F 81 °F 89 °F (1962)
Min Temperature 57 °F 64 °F 47 °F (1977)
Degree Days  
Heating Degree Days 0 0  
Month to date heating degree days 0  
Since 1 July heating degree days 0  
Cooling Degree Days 4 8  
Month to date cooling degree days 121  
Year to date cooling degree days 2810  
Growing Degree Days 20 (Base 50)    
Moisture  
Dew Point 63 °F    
Average Humidity 91    
Maximum Humidity 100    
Minimum Humidity 65    
Precipitation  
Precipitation 0.01 in 0.11 in 2.36 in (2001)
Month to date precipitation 1.43  
Year to date precipitation 50.61  
Snow  
Snow 0.00 in - - ()
Month to date snowfall  
Since 1 July snowfall  
Since 1 September snowfall  
Snow Depth -    
Sea Level Pressure  
Sea Level Pressure 30.18 in    
Wind  
Wind Speed 2 mph (ESE)    
Max Wind Speed 14 mph    
Max Gust Speed -    
Visibility 5 miles    
Events Fog    
T = Trace of Precipitation, MM = Missing Value Source: NWS Daily Summary

Daily Weather History Graph

Daily Weather History Graph

Search for Another Location

Airport:

Trip Planner

Search our weather history database for the weather conditions in past years. The results will help you decide how hot, cold, wet, or windy it might be!

Date:

Astronomy

Oct. 13, 2012 Rise Set
Actual Time 7:00 AM CDT 6:29 PM CDT
Civil Twilight 6:36 AM CDT 6:53 PM CDT
Nautical Twilight 6:08 AM CDT 7:21 PM CDT
Astronomical Twilight 5:40 AM CDT 7:49 PM CDT
Moon 4:56 AM CDT (10/13) 5:09 PM CDT (10/13)
Length of Visible Light 12h 17m
Length of Day
11h 29m
Waning Crescent, 5% of the Moon is Illuminated
Oct 13
Waning Crescent
Oct 15
New
Oct 21
First Quarter
Oct 29
Full
Nov 6
Last Quarter

Hourly Weather History & Observations

Time (CDT) Temp. Heat Index Dew Point Humidity Pressure Visibility Wind Dir Wind Speed Gust Speed Precip Events Conditions
12:53 AM 62.1 °F - 60.1 °F 93% 30.18 in 9.0 mi Calm Calm - N/A   Partly Cloudy
1:05 AM 62.6 °F - 60.8 °F 94% 30.17 in 9.0 mi Calm Calm - N/A   Mostly Cloudy
1:53 AM 61.0 °F - 59.0 °F 93% 30.17 in 7.0 mi Calm Calm - N/A   Overcast
2:02 AM 60.8 °F - 60.8 °F 100% 30.17 in 1.8 mi Calm Calm - N/A   Overcast
2:12 AM 60.8 °F - 59.0 °F 94% 30.17 in 3.0 mi Calm Calm - N/A   Overcast
2:25 AM 60.8 °F - 59.0 °F 94% 30.17 in 2.5 mi Calm Calm - N/A   Overcast
2:32 AM 59.0 °F - 59.0 °F 100% 30.17 in 4.0 mi Calm Calm - N/A   Overcast
2:42 AM 59.0 °F - 59.0 °F 100% 30.17 in 1.8 mi Calm Calm - N/A   Overcast
2:51 AM 59.0 °F - 59.0 °F 100% 30.17 in 0.2 mi North 3.5 mph - N/A Fog Fog
2:53 AM 59.0 °F - 59.0 °F 100% 30.17 in 0.2 mi North 3.5 mph - N/A Fog Fog
3:53 AM 60.1 °F - 60.1 °F 100% 30.18 in 0.2 mi North 3.5 mph - N/A Fog Fog
4:53 AM 60.1 °F - 60.1 °F 100% 30.18 in 0.2 mi Calm Calm - N/A Fog Fog
5:53 AM 60.1 °F - 60.1 °F 100% 30.19 in 2.5 mi Calm Calm - N/A   Mostly Cloudy
6:00 AM 59.0 °F - 59.0 °F 100% 30.19 in 5.0 mi Calm Calm - N/A   Overcast
6:53 AM 57.9 °F - 57.9 °F 100% 30.20 in 2.0 mi Calm Calm - 0.01 in   Overcast
7:00 AM 57.2 °F - 57.2 °F 100% 30.20 in 0.8 mi North 3.5 mph - N/A   Mist
7:40 AM 59.0 °F - 59.0 °F 100% 30.21 in 2.5 mi Calm Calm - N/A   Overcast
7:53 AM 61.0 °F - 61.0 °F 100% 30.21 in 2.0 mi Calm Calm - N/A   Overcast
8:01 AM 60.8 °F - 60.8 °F 100% 30.21 in 1.0 mi Calm Calm - N/A   Overcast
8:12 AM 62.6 °F - 62.6 °F 100% 30.22 in 0.8 mi Calm Calm - N/A   Overcast
8:53 AM 66.9 °F - 66.0 °F 97% 30.22 in 5.0 mi ENE 3.5 mph - N/A   Scattered Clouds
9:09 AM 68.0 °F - 66.2 °F 94% 30.23 in 4.0 mi Calm Calm - N/A   Mostly Cloudy
9:53 AM 73.9 °F - 70.0 °F 87% 30.23 in 10.0 mi East 3.5 mph - N/A   Clear
10:53 AM 78.1 °F - 70.0 °F 76% 30.23 in 10.0 mi Variable 3.5 mph - N/A   Partly Cloudy
11:53 AM 81.0 °F 84.1 °F 69.1 °F 67% 30.21 in 10.0 mi South 10.4 mph - N/A   Partly Cloudy
12:53 PM 82.0 °F 85.9 °F 70.0 °F 67% 30.19 in 10.0 mi South 10.4 mph - N/A   Scattered Clouds
1:53 PM 82.0 °F 85.5 °F 69.1 °F 65% 30.16 in 10.0 mi SSE 13.8 mph - N/A   Partly Cloudy
3:53 PM 82.0 °F 85.9 °F 70.0 °F 67% 30.12 in 10.0 mi SSE 9.2 mph - N/A   Scattered Clouds
4:53 PM 80.1 °F 83.2 °F 70.0 °F 71% 30.12 in 10.0 mi SE 9.2 mph - N/A   Partly Cloudy
5:53 PM 79.0 °F - 70.0 °F 74% 30.11 in 10.0 mi SE 8.1 mph - N/A   Clear
7:53 PM 73.9 °F - 70.0 °F 87% 30.12 in 10.0 mi ESE 3.5 mph - N/A   Clear
9:53 PM 72.0 °F - 71.1 °F 97% 30.13 in 7.0 mi ESE 3.5 mph - N/A   Clear